Flag for France Weather past 2 weeks in Tours, France

Now
59 °F

Clear.


Feels Like: 59 °F
Forecast: 51 / 67 °F
Wind: 2 mph from Northeast

Location: Tours Airport

Current Time: Sep 21, 2014 at 6:12:32 AM

Latest Report: Sep 21, 2014 at 5:30 AM


Visibility: 10 mi

Pressure: 30.04 "Hg

Humidity: 100%

Dew point: 59 °F

Location of ToursLocation

Historic Weather in Tours — Graph

°F

Tours temperature yesterday

Maximum temperature yesterday: 75 °F (at 2:30 PM)
Minimum temperature yesterday: 59 °F (at 5:00 AM)
Average temperature yesterday: 65 °F

Past Weeks' High & Low Weather Summary

 TemperatureHumidityPressure
High82 °F (Sep 8, 3:30 PM)100% (Sep 19, 8:00 AM)30.15 "Hg (Sep 19, 8:00 AM)
Low52 °F (Sep 11, 6:00 AM)34% (Sep 10, 5:30 PM)29.71 "Hg (Sep 17, 5:30 AM)
Average67 °F69%29.95 "Hg
* Reported Sep 6 4:00 AM — Sep 21 4:30 AM, Tours, Weather by CustomWeather, © 2014

Note: Actual official high and low records may vary slightly from our data, if they occured in-between our weather recording intervals... More about our weather records

Advertising

Tours weather history for previous 24 hours

 ConditionsComfort  
Time TempWeatherWind HumidityBarometerVisibility
4:30 AM
Sep 21
61 °FOvercast.2 mph94%30.04 "Hg4 mi
4:00 AM61 °FMostly cloudy.No wind100%30.04 "Hg6 mi
3:30 AM61 °FPassing clouds.2 mph94%30.04 "HgN/A
3:00 AM63 °FClear.5 mph88%30.04 "HgN/A
2:30 AM63 °FClear.3 mph94%30.04 "HgN/A
2:00 AM63 °FClear.2 mph94%30.04 "Hg10 mi
1:30 AM64 °FClear.5 mph94%30.04 "Hg10 mi
1:00 AM64 °FClear.5 mph94%30.04 "Hg10 mi
12:30 AM64 °FClear.2 mph94%30.04 "Hg10 mi
12:00 AM64 °FClear.1 mph88%30.04 "Hg10 mi
11:30 PM
Sep 20
64 °FClear.1 mph94%30.04 "Hg10 mi
11:00 PM66 °FClear.2 mph88%30.01 "Hg10 mi
10:30 PM68 °FClear.3 mph88%30.01 "Hg10 mi
10:00 PM68 °FClear.1 mph83%30.01 "Hg10 mi
9:30 PM68 °FPartly cloudy.2 mph83%30.01 "HgN/A
9:00 PM68 °FLight rain. Partly cloudy.6 mph88%30.01 "HgN/A
8:30 PM70 °FLight rain. Broken clouds.5 mph83%30.01 "HgN/A
8:00 PM70 °FBroken clouds.2 mph78%30.01 "HgN/A
7:30 PM72 °FLight rain. Broken clouds.5 mph73%29.98 "HgN/A
3:30 PM73 °FMild.9 mph69%29.98 "HgN/A
3:00 PM75 °FBroken clouds.10 mph69%30.01 "HgN/A
2:30 PM75 °FClear.8 mph69%30.01 "HgN/A
2:00 PM73 °FClear.5 mph69%30.01 "HgN/A
1:30 PM73 °FClear.5 mph69%30.01 "HgN/A
1:00 PM70 °FClear.3 mph73%30.01 "HgN/A
12:30 PM70 °FClear.6 mph78%30.01 "HgN/A
12:00 PM72 °FClear.7 mph73%30.01 "HgN/A
11:30 AM70 °FClear.5 mph73%30.01 "HgN/A
11:00 AM68 °FClear.6 mph78%29.98 "HgN/A
10:30 AM64 °FClear.6 mph88%29.98 "HgN/A
10:00 AM63 °FClear.5 mph88%29.98 "HgN/A
9:30 AM61 °FClear.6 mph94%29.98 "HgN/A
9:00 AM61 °FClear.3 mph94%29.95 "HgN/A
8:30 AM61 °FClear.2 mph94%29.95 "HgN/A
8:00 AM59 °FClear.2 mph94%29.95 "Hg10 mi
7:30 AM59 °FClear.5 mph94%29.95 "Hg10 mi
7:00 AM59 °FClear.5 mph100%29.95 "Hg10 mi
6:30 AM59 °FClear.6 mph100%29.92 "Hg10 mi
6:00 AM59 °FClear.6 mph94%29.92 "Hg10 mi
Weather by CustomWeather, © 2014

See weather overviewHow to use our weather pages